Location: Santa Giusta
(39.8800°N, 8.6069°E)
Time: 17:42:38
(UTC+00:00)

SL-08 ROCKET BODY - Pass Details

Date: 02 February 2023
Orbit: 897 x 962 km, 83.0° (Epoch: 31 March)

Event Time Altitude Azimuth Distance (km) Brightness Sun altitude
Rises 17:20:59 0° 357° (N) 3,540 7.3 -7.2°
Reaches altitude 10° 17:23:32 10° 2° (N) 2,589 6.6 -7.7°
Maximum altitude 17:29:17 54° 80° (E) 1,077 4.4 -8.8°
Drops below altitude 10° 17:34:58 10° 157° (SSE) 2,562 6.6 -9.8°
Sets 17:37:27 0° 162° (SSE) 3,500 7.4 -10.3°
